sat.trackr.live / text

‹ back to catalog

KUIPER-00616

NORAD 69775 · 2026-151N

PAYLOAD ACTIVE UNKNOWN

§ Identity

Operator
Country
US
Launch date
2026-07-02
Launch site
AFETR
Launch vehicle
Mass (kg)
RCS (m²)

External: N2YO · Heavens-Above · Gunter

§ Orbital elements

Epoch: 2026-09-20T04:00:03.000096Z

Period
96.82 min
Inclination
51.8972°
Eccentricity
0.0006070
Mean motion
14.87291971 rev/d
Perigee alt
602.2 km
Apogee alt
610.6 km
Semi-major
6,984.5 km
B*
-6.0873e-3
RAAN
220.8457°
Arg perigee
140.8857°
Mean anomaly
330.9406°
Rev number
273

§ Raw data

KUIPER-006161 69775U 26151N   26263.16670139 -.00055263  00000+0 -60873-2 0  99992 69775  51.8972 220.8457 0006070 140.8857 330.9406 14.87291971  2738

JSON: /api/v1/satellites/69775 · /tle

For live sub-satellite position, see the globe view (requires WebGL).

§ Visibility from observer

Set your observer location to see the next 7 days of passes ≥ 10°. The values pass through the URL so the page stays shareable.

No JS? Fill the form by hand. The geolocation button needs JavaScript.